Regional Weather Roundup
Issued by NWS

Home | Current Version | Previous Version | Graphics & Text | Print | Product List | Glossary On
Versions: 1 2 3 4 5 6 7 8 9 10 11 12 13 14 15 16 17 18 19 20 21 22 23 24 25 26 27 28 29 30 31 32 33 34 35 36 37 38 39 40 41 42 43 44 45 46 47 48 49 50
000
ASUS43 KMKX 210100
RWRWI

WISCONSIN REGIONAL WEATHER ROUNDUP
NATIONAL WEATHER SERVICE MILWAUKEE/SULLIVAN WI
800 PM CDT SUN APR 20 2014

NOTE: "FAIR" INDICATES FEW OR NO CLOUDS BELOW 12,000 FEET WITH NO
SIGNIFICANT WEATHER AND/OR OBSTRUCTIONS TO VISIBILITY.

WIZ001-002-006>008-014>016-023>028-210200-
NORTHWEST WISCONSIN

CITY           SKY/WX    TMP DP  RH WIND       PRES   REMARKS
SUPERIOR ARPT  CLEAR     51  35  55 CALM      29.98S
ASHLAND        CLEAR     44  37  76 CALM      30.01S
HAYWARD        CLEAR     57  29  34 CALM      29.98S
SIREN          CLEAR     65  30  27 NE5       29.97S
RICE LAKE      CLEAR     65  48  52 SE7       29.98S
LADYSMITH      CLEAR     64  52  65 S7        29.99F
EAU CLAIRE     CLOUDY    63  54  72 SE3       29.96F
MENOMONIE      PTCLDY    64  54  68 SE5       29.97F
NEW RICHMOND   CLEAR     65  52  61 S6        29.96S
OSCEOLA        CLEAR     68  34  27 N6        29.97F
$$

WIZ003>005-009-010-017-018-210200-
NORTH CENTRAL WISCONSIN

CITY           SKY/WX    TMP DP  RH WIND       PRES   REMARKS
WOODRUFF       PTCLDY    58  48  69 CALM      30.01R
RHINELANDER    MOCLDY    54  49  83 SW6       30.01S
EAGLE RIVER    CLEAR     57  47  69 CALM      30.00R
LAND O LAKES   CLEAR     57  34  41 N5        30.02R
PHILLIPS       CLEAR     60  51  73 S6        29.99R
TOMAHAWK       CLOUDY    55  49  81 CALM      30.00F
MEDFORD        CLOUDY    56  53  91 CALM      30.00S
MERRILL        CLOUDY    56  52  87 CALM      30.00F
$$

WIZ029-030-035-036-043>047-210200-
CENTRAL WISCONSIN

CITY           SKY/WX    TMP DP  RH WIND       PRES   REMARKS
WAUSAU         CLOUDY    57  53  86 SE5       29.99F
MOSINEE        CLOUDY    55  54  94 SE3       30.01F
MARSHFIELD     CLOUDY    57  54  89 CALM      29.99F
STEVENS POINT  CLOUDY    56  52  88 CALM      30.01F
WAUPACA        CLOUDY    59  54  82 CALM      30.02F
WAUTOMA        NOT AVBL
WISC RAPIDS    CLOUDY    56  53  90 CALM      30.01F
CAMP DOUGLAS   FOG       55  55 100 E2        29.99F VSB 1
$$

WIZ011>013-019>022-031-037>040-048>050-210200-
NORTHEAST WISCONSIN

CITY           SKY/WX    TMP DP  RH WIND       PRES   REMARKS
ANTIGO         CLOUDY    53  50  90 S6        30.01F
STURGEON BAY   CLOUDY    48  39  71 S6        30.04F
GREEN BAY      CLOUDY    56  53  90 CALM      30.02F
MANITOWOC      NOT AVBL
APPLETON       CLOUDY    55  50  82 E5        30.02F
CLINTONVILLE   CLOUDY    55  54  94 CALM      30.02F
OSHKOSH        CLOUDY    56  50  80 CALM      30.00F
$$

WIZ032>034-041-042-053>061-210200-
SOUTHWEST WISCONSIN

CITY           SKY/WX    TMP DP  RH WIND       PRES   REMARKS
LA CROSSE      CLOUDY    57  53  86 NW5       29.96F
SPARTA         MOCLDY    59  54  82 CALM      29.99F
VIROQUA        FAIR      58  58 100 E6        29.97F
BOSCOBEL       CLOUDY    61  56  83 E5        29.96R
PRAIRIE DU CHI CLOUDY    59  56  92 CALM      29.94F FOG
PLATTEVILLE    FAIR      69  47  45 SE9       29.98F
$$

WIZ056-057-062-063-064-067-068-210200-
SOUTH CENTRAL WISCONSIN

CITY           SKY/WX    TMP DP  RH WIND       PRES   REMARKS
BARABOO/DELLS  CLOUDY    57  54  91 CALM      29.99S FOG
LONE ROCK      NOT AVBL
WATERTOWN      CLOUDY    65  50  60 E5        29.99F
MADISON        CLOUDY    65  48  54 SE5       29.98F
MIDDLETON      MOCLDY    66  46  48 SE6       29.99F
MONROE         CLOUDY    69  45  40 S8        29.99F
JANESVILLE     CLEAR     73  37  27 S8        29.99F
$$

WIZ051-052-058>065-066-070>072-210200-
SOUTHEAST WISCONSIN

CITY           SKY/WX    TMP DP  RH WIND       PRES   REMARKS
MILWAUKEE      CLOUDY    65  38  36 S12       30.02F
WAUKESHA       MOCLDY    64  43  45 SE9       30.02S
MILWAUKEE/TIMM CLOUDY    66  37  34 S7        30.02F
RACINE         MOCLDY    59  37  44 S13       30.04F
BURLINGTON     MOCLDY    67  41  38 S3        30.02S
KENOSHA        MOCLDY    63  39  41 SE9       30.03F
FOND DU LAC    CLOUDY    56  49  77 CALM      30.00F
SHEBOYGAN      CLOUDY    53  39  59 SE3       30.02F
WEST BEND      CLOUDY    59  41  51 CALM      30.02F
JUNEAU         CLOUDY    60  47  61 NE7       30.01F
$$

LSZ147-162-210200-
LAKE SUPERIOR

STATION/POSITION TIME  TEMP    WIND        PRES    WAVE
                       AIR SEA DIR/SP/G            HT/PER
                 (UTC) (F)     (DEG/KT/KT) (MB)    (FT/S)
DEVILS ISLAND    0000   51     100/  2/  5 1016.5R
PORT WING        0030   44      70/  3/  8 1015.6F
SAXON HARBOR     0000             CALM     1015.9F
$$

LMZ867-665-643>646-210200-
LAKE MICHIGAN

STATION/POSITION TIME  TEMP    WIND        PRES    WAVE
                       AIR SEA DIR/SP/G            HT/PER
                 (UTC) (F)     (DEG/KT/KT) (MB)    (FT/S)
NORTHPORT PIER   0000   47     170/  4/  7 1016.9F
SISTER BAY       0009   50     190/ 11/ 12   N/A
KEWAUNEE LAKESHO 0000   40     160/  5/  6 1018.1F
SHEBOYGAN LAKESH 0000   44      40/  5/  6 1018.1F
PORT WASHINGTON  0000   49     190/  5/  8 1017.3F
MILWAUKEE LAKESH 0000   51     150/ 11/ 13   N/A
KENOSHA   LAKESH 0000   53     180/ 15/ 18   N/A
$$

TC  - TEMPERATURE IN CELSIUS
VSB - VISIBILITY IN STATUTE MILES
WCI - WIND CHILL INDEX
HX  - HEAT INDEX




USA.gov is the U.S. government's official web portal to all federal, state and local government web resources and services.